Погода в Кайо-Ларго

Куба     21°38′11″N   81°29′23″W
темп.,
°C
ветер,
м/с
пор.,
м/с
влажн.,
%
обл.,
%
осадки,
мм/ч
давл.,
гПа
погр.,
м
10 мая, пн
пн1023:00+28в56660 0.0 1017739
02:00+28в55690 0.0 1016860
05:00+27вюв87750 1.0 1015879
08:00+27вюв887320 2.6 10171034
11:00+27вюв777496 0.1 1018848
14:00+28вюв66763 0.2 1017672
17:00+28ююв55733 0.0 1015623
20:00+28ююв33720 0.0 1016658
11 мая, вт
вт1123:00+28в23721 0.2 1017533
02:00+28вюв45710 0.4 1016626
05:00+28вюв44710 0.0 1015753
08:00+28в66756 0.0 1016759
11:00+28вюв55752 0.0 1017804
14:00+28в44758 0.0 1017625
17:00+28ююв667231 0.0 1014450
20:00+28юв447018 0.0 1015589
12 мая, ср
ср1223:00+28вюв4472100 1.6 1016275
02:00+28в55735 3.4 1016550
05:00+28в457512 1.3 1015502
08:00+28вюв66775 1.5 1016697
11:00+28вюв77766 0.0 1017786
14:00+28вюв55773 0.1 1016646
17:00+28ю65760 0.1 1015499
20:00+28юз22720 0.4 1015479
13 мая, чт
чт1323:00+27с11755 1.4 101732
02:00+28св11630 1.4 1016399
05:00+28ссв22690 0.0 1014485
08:00+27всв32745 0.0 1016365
11:00+28вюв22690 0.0 1017379
14:00+28юв11664 0.0 1016372
17:00+29юз446799 0.0 1014487
20:00+29зсз226664 0.0 1015496
14 мая, пт
пт1423:00+29зсз2267100 0.0 1016455
02:00+28сз33699 0.0 1015579
05:00+27ссв55795 0.0 1014550
08:00+27ссв557697 0.0 1016463
11:00+27св457777 0.0 1017470
14:00+28вюв1170100 0.0 1015210
17:00+29зюз4467100 0.0 1014366
20:00+29зюз1268100 0.0 1014288